Weather History for KRWI - January, 2014

Change the Weather History Date:

Friday, January 3, 2014

  Actual Average Record
Temperature  
Mean Temperature 34 °F -  
Max Temperature 45 °F 51 °F 73 °F (2000)
Min Temperature 21 °F 32 °F 12 °F (2001)
Degree Days  
Heating Degree Days 30    
Moisture  
Dew Point 16 °F    
Average Humidity 53    
Maximum Humidity 86    
Minimum Humidity 31    
Precipitation  
Precipitation 0.00 in - - ()
Sea Level Pressure  
Sea Level Pressure 30.15 in    
Wind  
Wind Speed 14 mph (NNW)    
Max Wind Speed 25 mph    
Max Gust Speed 34 mph    
Visibility 10 miles    
Events      
Averages and records for this station are not official NWS values.
T = Trace of Precipitation, MM = Missing Value Source: NWS Daily Summary

Daily Weather History Graph

Daily Weather History Graph

Search for Another Location

Airport or City:

Trip Planner

Search our weather history database for the weather conditions in past years. The results will help you decide how hot, cold, wet, or windy it might be!

Date:

Astronomy

Jan. 03, 2014 Rise Set
Actual Time 7:22 AM EST 5:10 PM EST
Civil Twilight 6:53 AM EST 5:38 PM EST
Nautical Twilight 6:21 AM EST 6:10 PM EST
Astronomical Twilight 5:50 AM EST 6:41 PM EST
Moon 8:52 AM EST (1/3) 8:10 PM EST (1/3)
Length of Visible Light 10h 44m
Length of Day
9h 48m
Waxing Crescent, 8% of the Moon is Illuminated
Jan 3
Waxing Crescent
Jan 7
First Quarter
Jan 15
Full
Jan 24
Last Quarter
Jan 30
New

Hourly Weather History & Observations

Time (EST) Temp. Windchill Dew Point Humidity Pressure Visibility Wind Dir Wind Speed Gust Speed Precip Events Conditions
12:08 AM 45.0 °F 38.9 °F 41.0 °F 86% 29.62 in 10.0 mi WNW 12.7 mph - N/A   Overcast
12:19 AM 45.0 °F 38.9 °F 41.0 °F 86% 29.62 in 10.0 mi WNW 12.7 mph 23.0 mph N/A   Overcast
12:53 AM 44.1 °F 36.8 °F 39.0 °F 82% 29.65 in 10.0 mi WNW 16.1 mph 24.2 mph N/A   Overcast
1:53 AM 42.1 °F 35.7 °F 35.1 °F 76% 29.67 in 10.0 mi WNW 11.5 mph 21.9 mph N/A   Mostly Cloudy
2:53 AM 39.9 °F 29.2 °F 28.9 °F 65% 29.74 in 10.0 mi NW 25.3 mph 34.5 mph N/A   Mostly Cloudy
3:53 AM 36.0 °F 26.0 °F 23.0 °F 59% 29.81 in 10.0 mi NW 17.3 mph 26.5 mph N/A   Overcast
4:53 AM 33.1 °F 20.6 °F 19.0 °F 56% 29.88 in 10.0 mi NW 23.0 mph 32.2 mph N/A   Mostly Cloudy
5:53 AM 30.0 °F 17.2 °F 12.9 °F 49% 29.96 in 10.0 mi NW 20.7 mph 31.1 mph N/A   Clear
6:53 AM 28.0 °F 15.7 °F 10.0 °F 47% 30.04 in 10.0 mi NW 17.3 mph 31.1 mph N/A   Clear
7:53 AM 26.1 °F 12.7 °F 8.1 °F 47% 30.12 in 10.0 mi NW 18.4 mph 26.5 mph N/A   Clear
8:53 AM 28.0 °F 15.7 °F 9.0 °F 45% 30.18 in 10.0 mi NW 17.3 mph 31.1 mph N/A   Clear
9:53 AM 30.0 °F 17.2 °F 8.1 °F 40% 30.21 in 10.0 mi North 20.7 mph 29.9 mph N/A   Clear
10:53 AM 32.0 °F 20.8 °F 9.0 °F 38% 30.25 in 10.0 mi NW 17.3 mph 24.2 mph N/A   Clear
11:53 AM 33.1 °F 22.2 °F 9.0 °F 37% 30.25 in 10.0 mi NNW 17.3 mph 26.5 mph N/A   Clear
12:53 PM 34.0 °F 24.6 °F 7.0 °F 32% 30.27 in 10.0 mi NW 13.8 mph 25.3 mph N/A   Clear
1:53 PM 35.1 °F 25.2 °F 8.1 °F 33% 30.30 in 10.0 mi NW 16.1 mph 20.7 mph N/A   Clear
2:53 PM 35.1 °F 25.9 °F 8.1 °F 33% 30.32 in 10.0 mi North 13.8 mph - N/A   Clear
3:53 PM 34.0 °F 24.2 °F 6.1 °F 31% 30.33 in 10.0 mi North 15.0 mph - N/A   Clear
4:53 PM 33.1 °F 26.1 °F 5.0 °F 31% 30.36 in 10.0 mi North 8.1 mph - N/A   Clear
5:53 PM 27.0 °F 20.5 °F 10.0 °F 49% 30.39 in 10.0 mi North 5.8 mph - N/A   Clear
6:53 PM 25.0 °F - 14.0 °F 63% 30.43 in 10.0 mi Calm Calm - N/A   Clear
7:53 PM 25.0 °F - 12.9 °F 60% 30.47 in 10.0 mi Calm Calm - N/A   Clear
8:53 PM 24.1 °F - 16.0 °F 71% 30.47 in 10.0 mi Calm Calm - N/A   Clear
9:53 PM 25.0 °F - 10.9 °F 55% 30.48 in 10.0 mi Calm Calm - N/A   Clear
10:53 PM 25.0 °F 20.7 °F 10.0 °F 53% 30.48 in 10.0 mi NE 3.5 mph - N/A   Clear
11:53 PM 21.9 °F 17.2 °F 12.0 °F 66% 30.49 in 10.0 mi NE 3.5 mph - N/A   Clear